This is the latest recevied weather packets stored in our database for station/object OE-11073. If no packets are shown the sender has not sent any weather packets the latest 10 day(s).
| Time | Temp. | Humidity | Pressure | Rain* | Wind** | Luminosity | Snow |
|---|---|---|---|---|---|---|---|
| 1787819710 | 18.89° C | 76% | - | 0 mm | - | 329 W/m² | - |
| 1787819110 | 18.33° C | 76% | - | 0 mm | - | 367 W/m² | - |
| 1787818283 | 18.33° C | 77% | - | 0 mm | - | 360 W/m² | - |
| 1787817909 | 17.78° C | 77% | - | 0 mm | - | 352 W/m² | - |
| 1787817309 | 17.22° C | 80% | - | 0 mm | - | 360 W/m² | - |
| 1787816483 | 17.22° C | 81% | - | 0 mm | - | 314 W/m² | - |
| 1787816109 | 16.67° C | 84% | - | 0 mm | - | 298 W/m² | - |
| 1787815509 | 16.67° C | 84% | - | 0 mm | - | 298 W/m² | - |
| 1787814683 | 16.11° C | 84% | - | 0 mm | - | 245 W/m² | - |
| 1787814310 | 16.11° C | 84% | - | 0 mm | - | 199 W/m² | - |
| 1787813710 | 16.11° C | 86% | - | 0 mm | - | 222 W/m² | - |
| 1787812883 | 15.56° C | 88% | - | 0 mm | - | 283 W/m² | - |
| 1787812510 | 15.56° C | 87% | - | 0 mm | - | 237 W/m² | - |
| 1787811910 | 15° C | 89% | - | 0 mm | - | 191 W/m² | - |
| 1787811322 | 15° C | 90% | - | 0 mm | - | 199 W/m² | - |
| 1787810710 | 14.44° C | 93% | - | 0 mm | - | 168 W/m² | - |
| 1787810110 | 13.33° C | 95% | - | 0 mm | - | 130 W/m² | - |
| 1787809283 | 12.22° C | 97% | - | 0 mm | - | 107 W/m² | - |
| 1787808910 | 11.67° C | 97% | - | 0 mm | - | 77 W/m² | - |
| 1787808310 | 11.67° C | 98% | - | 0 mm | - | 54 W/m² | - |
| 1787807483 | 11.67° C | 98% | - | 0 mm | - | 23 W/m² | - |
| 1787807110 | 11.11° C | 98% | - | 0 mm | - | 15 W/m² | - |
| 1787806510 | 11.67° C | 99% | - | 0 mm | - | 15 W/m² | - |
| 1787805682 | 11.11° C | 99% | - | 0 mm | - | 8 W/m² | - |
| 1787805310 | 10.56° C | 98% | - | 0 mm | - | 0 W/m² | - |
* Rain latest hour (hover to see other rain measurements)
** Current wind speed in m/s (hover to see current wind gust speed)